ZACUBE-1 (TSHEPISOSAT)

Last updated on Tue Jul 01 2025 00:03:06 GMT+0000 (Coordinated Universal Time)

1 39417U 13066B 25181.37753715 .00003158 00000+0 27575-3 0 9990 2 39417 97.7818 138.2832 0043587 345.3019 14.6932 14.96824182628023
UTC large
Height (km)
Speed (km/s)
/
Latitude / Longitude
Inclination (degrees)
Orbital Period (minutes)
Azimuth
Elevation
Range (km)
Doppler Factor

Next 0 passes for location: London (51.5072 / 0.1276)

Sorry there are no passes over London.